Hall Beach, Northwest Territories

11:05 AM EST on February 14, 2016 (GMT -0500)
Hall Beach

Weather History for CYUX - March, 2013

Change the Weather History Date:

Saturday, March 9, 2013

  Actual Average Record
Temperature  
Mean Temperature -33 °F -  
Max Temperature -25 °F -12 °F 3 °F (2001)
Min Temperature -41 °F -27 °F -47 °F (2004)
Degree Days  
Heating Degree Days 98    
Moisture  
Dew Point -41 °F    
Average Humidity 69    
Maximum Humidity 83    
Minimum Humidity 60    
Precipitation  
Precipitation 0.00 in - - ()
Sea Level Pressure  
Sea Level Pressure 30.23 in    
Wind  
Wind Speed 5 mph ()    
Max Wind Speed 8 mph    
Max Gust Speed -    
Visibility 7.5 miles    
Events Fog , Snow    
Averages and records for this station are not official NWS values.
T = Trace of Precipitation, MM = Missing Value Source: Averaged Metar Reports

Daily Weather History Graph

Daily Weather History Graph

Search for Another Location

Airport or City:

Trip Planner

Search our weather history database for the weather conditions in past years. The results will help you decide how hot, cold, wet, or windy it might be!

Date:

Astronomy

Mar. 09, 2013 Rise Set
Actual Time 7:10 AM EST 6:01 PM EST
Civil Twilight 6:13 AM EST 6:59 PM EST
Nautical Twilight 5:06 AM EST 8:07 PM EST
Astronomical Twilight 3:50 AM EST 9:24 PM EST
Moon 6:27 AM EST (3/9) 3:19 PM EST (3/9)
Length of Visible Light 12h 45m
Length of Day
10h 50m
Waning Crescent, 5% of the Moon is Illuminated
Mar 9
Waning Crescent
Mar 11
New
Mar 19
First Quarter
Mar 27
Full
Apr 3
Last Quarter

Hourly Weather History & Observations

Time (EST) Temp. Windchill Dew Point Humidity Pressure Visibility Wind Dir Wind Speed Gust Speed Precip Events Conditions
12:00 AM -25.6 °F -39.8 °F -29.2 °F 83% 30.09 in 9.0 mi South 4.6 mph - N/A   Clear
1:00 AM -38.2 °F - -45.4 °F 67% 30.10 in 9.0 mi Variable 2.3 mph - N/A   Clear
2:00 AM -38.2 °F - -45.4 °F 67% 30.10 in 9.0 mi WNW 2.3 mph - N/A   Clear
3:00 AM -40.0 °F -59.0 °F -47.2 °F 67% 30.10 in 9.0 mi West 5.8 mph - N/A   Clear
4:00 AM -40.0 °F -62.9 °F -47.2 °F 67% 30.10 in 9.0 mi WNW 8.1 mph - N/A   Clear
5:00 AM -40.0 °F -59.0 °F -49.0 °F 60% 30.12 in 9.0 mi WNW 5.8 mph - N/A   Clear
6:00 AM -41.8 °F -65.1 °F -49.0 °F 67% 30.12 in 9.0 mi WSW 8.1 mph - N/A   Clear
7:00 AM -41.8 °F -63.3 °F -49.0 °F 67% 30.13 in 15.0 mi WSW 6.9 mph - N/A   Mostly Cloudy
8:00 AM -41.8 °F -65.1 °F -49.0 °F 67% 30.14 in 12.0 mi WSW 8.1 mph - N/A Fog Mostly Cloudy
8:16 AM -40.0 °F -53.5 °F -47.2 °F 67% 30.15 in 1.5 mi SE 3.5 mph - N/A   Mostly Cloudy
8:38 AM -38.2 °F -58.9 °F -45.4 °F 67% 30.15 in 10.0 mi SW 6.9 mph - N/A Fog Mostly Cloudy
9:00 AM -40.0 °F - -47.2 °F 67% 30.17 in 12.0 mi Calm Calm - N/A Fog Scattered Clouds
10:00 AM -36.4 °F -58.5 °F -43.6 °F 67% 30.16 in 12.0 mi SW 8.1 mph - N/A Fog Partly Cloudy
11:00 AM -36.4 °F -56.8 °F -43.6 °F 67% 30.17 in 12.0 mi WSW 6.9 mph - N/A   Clear
12:00 PM -32.8 °F - -38.2 °F 75% 30.19 in 12.0 mi Calm Calm - N/A   Clear
1:00 PM -32.8 °F -45.3 °F -40.0 °F 68% 30.20 in 15.0 mi SW 3.5 mph - N/A   Partly Cloudy
2:00 PM -31.0 °F -48.4 °F -38.2 °F 68% 30.21 in 15.0 mi SW 5.8 mph - N/A   Scattered Clouds
3:00 PM -31.0 °F -50.3 °F -38.2 °F 68% 30.22 in 15.0 mi WSW 6.9 mph - N/A   Scattered Clouds
4:00 PM -31.0 °F -48.4 °F -38.2 °F 68% 30.23 in 15.0 mi SW 5.8 mph - N/A   Scattered Clouds
5:00 PM -32.8 °F -45.3 °F -40.0 °F 68% 30.25 in 15.0 mi West 3.5 mph - N/A   Scattered Clouds
6:00 PM -34.6 °F -52.6 °F -41.8 °F 68% 30.25 in 15.0 mi WSW 5.8 mph - N/A   Mostly Cloudy
6:24 PM -34.6 °F -52.6 °F -41.8 °F 68% 30.26 in 8.0 mi WSW 5.8 mph - N/A Snow Light Snow
7:00 PM -34.6 °F -52.6 °F -41.8 °F 68% 30.26 in 12.0 mi West 5.8 mph - N/A Snow Light Snow
7:13 PM -34.6 °F -50.3 °F -41.8 °F 68% 30.27 in 5.0 mi WNW 4.6 mph - N/A   Haze
7:19 PM -34.6 °F -50.3 °F -40.0 °F 75% 30.27 in 6.0 mi WNW 4.6 mph - N/A   Haze
7:56 PM -32.8 °F -48.2 °F -40.0 °F 68% 30.27 in 6.0 mi WNW 4.6 mph - N/A Snow Light Snow
7:57 PM -32.8 °F -48.2 °F -40.0 °F 68% 30.27 in 5.0 mi WNW 4.6 mph - N/A Snow Light Snow
8:00 PM -32.8 °F -48.2 °F -40.0 °F 68% 30.27 in 3.0 mi WNW 4.6 mph - N/A Snow Light Snow
8:01 PM -32.8 °F -48.2 °F -40.0 °F 68% 30.27 in 2.5 mi WNW 4.6 mph - N/A Snow Light Snow
8:03 PM -32.8 °F -48.2 °F -40.0 °F 68% 30.27 in 1.8 mi WNW 4.6 mph - N/A Snow Light Snow
8:12 PM -34.6 °F -50.3 °F -41.8 °F 68% 30.27 in 1.5 mi WNW 4.6 mph - N/A Snow Light Snow
8:16 PM -34.6 °F -50.3 °F -41.8 °F 68% 30.27 in 2.2 mi WNW 4.6 mph - N/A Snow Light Snow
8:18 PM -34.6 °F -50.3 °F -40.0 °F 75% 30.27 in 3.0 mi WNW 4.6 mph - N/A Snow Light Snow
8:21 PM -34.6 °F -50.3 °F -40.0 °F 75% 30.27 in 6.0 mi WNW 4.6 mph - N/A Snow Light Snow
8:31 PM -32.8 °F -52.4 °F -40.0 °F 68% 30.27 in 7.0 mi WNW 6.9 mph - N/A   Overcast
9:00 PM -34.6 °F -52.6 °F -40.0 °F 75% 30.28 in 8.0 mi WNW 5.8 mph - N/A   Overcast
9:04 PM -34.6 °F -52.6 °F -41.8 °F 68% 30.28 in 7.0 mi WNW 5.8 mph - N/A Snow Light Snow
9:07 PM -34.6 °F -52.6 °F -40.0 °F 75% 30.28 in 5.0 mi WNW 5.8 mph - N/A Snow Light Snow
9:22 PM -32.8 °F -52.4 °F -40.0 °F 68% 30.28 in 7.0 mi NW 6.9 mph - N/A Snow Light Snow
9:24 PM -32.8 °F -52.4 °F -40.0 °F 68% 30.29 in 9.0 mi NW 6.9 mph - N/A Snow Light Snow
9:27 PM -32.8 °F -50.5 °F -40.0 °F 68% 30.28 in 9.0 mi NW 5.8 mph - N/A   Overcast
9:35 PM -32.8 °F -50.5 °F -40.0 °F 68% 30.28 in 9.0 mi NNW 5.8 mph - N/A   Overcast
9:55 PM -32.8 °F -48.2 °F -40.0 °F 68% 30.28 in 8.0 mi NNW 4.6 mph - N/A Snow Light Snow
9:57 PM -32.8 °F -48.2 °F -40.0 °F 68% 30.28 in 5.0 mi NNW 4.6 mph - N/A Snow Light Snow
10:00 PM -32.8 °F -48.2 °F -40.0 °F 68% 30.28 in 5.0 mi NNW 4.6 mph - N/A Snow Light Snow
10:20 PM -32.8 °F -48.2 °F -38.2 °F 75% 30.29 in 2.2 mi NNW 4.6 mph - N/A Snow Light Snow
10:29 PM -32.8 °F -50.5 °F -40.0 °F 68% 30.29 in 2.5 mi NW 5.8 mph - N/A Snow Light Snow
10:40 PM -32.8 °F -50.5 °F -40.0 °F 68% 30.29 in 3.0 mi NW 5.8 mph - N/A Snow Light Snow
10:44 PM -32.8 °F -52.4 °F -38.2 °F 75% 30.29 in 7.0 mi WNW 6.9 mph - N/A Snow Light Snow
10:54 PM -31.0 °F -51.9 °F -38.2 °F 68% 30.28 in 5.0 mi WNW 8.1 mph - N/A Snow Light Snow
11:00 PM -32.8 °F -52.4 °F -38.2 °F 75% 30.28 in 2.5 mi WNW 6.9 mph - N/A Snow Light Snow
11:06 PM -32.8 °F -52.4 °F -38.2 °F 75% 30.28 in 3.0 mi WNW 6.9 mph - N/A Snow Light Snow
11:07 PM -32.8 °F -52.4 °F -38.2 °F 75% 30.28 in 3.0 mi WNW 6.9 mph - N/A Snow Light Snow
11:13 PM -32.8 °F -52.4 °F -40.0 °F 68% 30.28 in 6.0 mi WNW 6.9 mph - N/A Snow Light Snow
11:32 PM -32.8 °F -52.4 °F -38.2 °F 75% 30.28 in 5.0 mi WNW 6.9 mph - N/A Snow Light Snow
11:38 PM -32.8 °F -52.4 °F -40.0 °F 68% 30.28 in 4.0 mi WNW 6.9 mph - N/A Snow Light Snow
11:46 PM -32.8 °F -52.4 °F -40.0 °F 68% 30.29 in 6.0 mi WNW 6.9 mph - N/A Snow Light Snow
11:48 PM -32.8 °F -52.4 °F -40.0 °F 68% 30.29 in 8.0 mi WNW 6.9 mph - N/A Snow Light Snow